Location: Mercogliano
(40.9167°N, 14.7333°E)
Time: 22:10:55
(UTC+00:00)

CZ-2C R/B - Pass Details

Date: 19 January 2021
Orbit: 785 x 870 km, 98.2° (Epoch: 06 March)

Event Time Altitude Azimuth Distance (km) Brightness Sun altitude
Rises 04:01:50 0° 120° (ESE) 3,276 6.8 -26.1°
Reaches altitude 10° 04:04:54 10° 101° (E) 2,361 6.1 -25.5°
Maximum altitude 04:08:10 17° 62° (ENE) 1,923 5.2 -24.9°
Drops below altitude 10° 04:11:29 10° 22° (NNE) 2,397 5.2 -24.3°
Sets 04:14:37 0° 4° (N) 3,349 5.8 -23.7°
